CW9348 Weather Reports


Display with metric or nautical units.
time (UTC)temp
F
wind
direction
speed
MPH
gust
MPH
rain 1hr
in
rain 24hr
in
rain mn
in
humidity
%
barometer
mb
20200703225809 88 46 1.0 13.0 0.00 0.00 0.00 31 1018.0
20200703225314 88 52 2.0 15.0 0.00 0.00 0.00 30 1018.1
20200703224810 89 49 4.0 15.0 0.00 0.00 0.00 28 1018.2
20200703224309 89 42 3.0 13.0 0.00 0.00 0.00 29 1018.4
20200703223326 89 50 3.0 13.0 0.00 0.00 0.00 30 1018.6
20200703222813 88 48 2.0 10.0 0.00 0.00 0.00 30 1018.8
20200703222310 88 70 1.0 10.0 0.00 0.00 0.00 29 1018.6
20200703221841 89 72 0.0 8.0 0.00 0.00 0.00 28 1018.7
20200703221313 89 109 1.0 9.0 0.00 0.00 0.00 27 1018.6
20200703220831 89 115 4.0 11.0 0.00 0.00 0.00 27 1018.6
20200703215814 89 120 5.0 12.0 0.00 0.00 0.00 27 1018.7
20200703214328 89 111 6.0 12.0 0.00 0.00 0.00 27 1018.9
20200703213837 87 114 5.0 12.0 0.00 0.00 0.00 29 1019.0
20200703212810 87 100 5.0 16.0 0.00 0.00 0.00 30 1019.1
20200703212310 88 117 6.0 16.0 0.00 0.00 0.00 30 1019.2
20200703211339 91 115 4.0 11.0 0.00 0.00 0.00 26 1019.1
20200703210333 93 24 0.0 4.0 0.00 0.00 0.00 24 1019.0
20200703205801 93 355 1.0 4.0 0.00 0.00 0.00 24 1019.0
20200703204344 95 3 0.0 5.0 0.00 0.00 0.00 25 1018.9
20200703202842 95 59 0.0 1.0 0.00 0.00 0.00 24 1019.2
20200703201836 97 111 0.0 3.0 0.00 0.00 0.00 25 1019.3
20200703201304 97 64 0.0 3.0 0.00 0.00 0.00 23 1019.4
20200703200332 97 19 0.0 0.0 0.00 0.00 0.00 23 1019.4
20200703195346 96 64 0.0 0.0 0.00 0.00 0.00 23 1019.7
20200703194344 96 80 0.0 1.0 0.00 0.00 0.00 22 1019.7
20200703193828 95 84 0.0 0.0 0.00 0.00 0.00 25 1020.0
20200703192810 94 117 0.0 7.0 0.00 0.00 0.00 24 1019.9
20200703192327 95 115 0.0 9.0 0.00 0.00 0.00 23 1019.9
20200703191336 95 56 0.0 5.0 0.00 0.00 0.00 22 1019.9
20200703184803 95 118 0.0 5.0 0.00 0.00 0.00 23 1020.4
20200703183808 94 51 1.0 10.0 0.00 0.00 0.00 23 1020.5
20200703183308 94 49 1.0 5.0 0.00 0.00 0.00 23 1020.5
20200703182801 94 56 0.0 4.0 0.00 0.00 0.00 23 1020.5
20200703181841 93 91 1.0 6.0 0.00 0.00 0.00 23 1020.8
20200703175814 92 79 0.0 0.0 0.00 0.00 0.00 22 1021.0
20200703175341 92 76 0.0 1.0 0.00 0.00 0.00 25 1021.1
20200703174323 90 85 0.0 3.0 0.00 0.00 0.00 25 1021.1
20200703173813 90 89 0.0 3.0 0.00 0.00 0.00 25 1021.3
20200703171816 87 71 0.0 7.0 0.00 0.00 0.00 26 1021.6
20200703171308 87 113 1.0 7.0 0.00 0.00 0.00 25 1021.3
20200703170815 87 119 1.0 6.0 0.00 0.00 0.00 25 1021.3
20200703170334 86 109 2.0 6.0 0.00 0.00 0.00 26 1021.3
20200703165840 86 106 1.0 5.0 0.00 0.00 0.00 26 1021.3
20200703165333 85 104 0.0 8.0 0.00 0.00 0.00 27 1021.2
20200703164819 84 111 2.0 8.0 0.00 0.00 0.00 28 1021.2
20200703163817 83 122 1.0 10.0 0.00 0.00 0.00 29 1021.4
20200703163342 82 118 3.0 10.0 0.00 0.00 0.00 29 1021.3
20200703161839 80 85 3.0 10.0 0.00 0.00 0.00 30 1021.3
20200703160304 78 63 1.0 8.0 0.00 0.00 0.00 31 1021.5
20200703155820 77 105 4.0 9.0 0.00 0.00 0.00 31 1021.6
20200703154318 75 90 2.0 9.0 0.00 0.00 0.00 33 1021.5
20200703152810 73 97 2.0 12.0 0.00 0.00 0.00 33 1021.4
20200703152344 72 97 5.0 14.0 0.00 0.00 0.00 33 1021.4
20200703145817 70 92 6.0 11.0 0.00 0.00 0.00 33 1021.3
20200703144303 69 99 3.0 12.0 0.00 0.00 0.00 34 1021.2
20200703142306 67 97 4.0 10.0 0.00 0.00 0.00 35 1020.8
20200703141820 67 109 6.0 10.0 0.00 0.00 0.00 34 1020.8
20200703140809 66 104 3.0 9.0 0.00 0.00 0.00 35 1020.8
20200703140315 66 100 3.0 9.0 0.00 0.00 0.00 35 1020.7
20200703135831 66 107 3.0 14.0 0.00 0.00 0.00 35 1020.7
20200703135313 66 104 7.0 14.0 0.00 0.00 0.00 35 1020.6
20200703134811 65 108 4.0 12.0 0.00 0.00 0.00 35 1020.7
20200703133301 65 106 5.0 13.0 0.00 0.00 0.00 35 1020.4
20200703131345 64 99 4.0 7.0 0.00 0.00 0.00 36 1020.5
20200703130340 64 96 0.0 0.0 0.00 0.00 0.00 39 1020.3
20200703124303 64 117 3.0 10.0 0.00 0.00 0.00 35 1020.0
20200703123809 64 94 2.0 9.0 0.00 0.00 0.00 35 1019.8
20200703123346 64 101 3.0 9.0 0.00 0.00 0.00 35 1019.8
20200703122822 64 122 2.0 10.0 0.00 0.00 0.00 34 1019.8
20200703121815 64 106 4.0 8.0 0.00 0.00 0.00 34 1019.5
20200703121314 64 105 2.0 7.0 0.00 0.00 0.00 34 1019.7
20200703120836 64 94 4.0 8.0 0.00 0.00 0.00 34 1019.5
20200703114838 64 99 1.0 9.0 0.00 0.00 0.00 34 1019.3
20200703112836 65 114 1.0 7.0 0.00 0.00 0.00 34 1019.2
20200703112330 65 94 0.0 7.0 0.00 0.00 0.00 34 1019.1
20200703111817 65 93 0.0 8.0 0.00 0.00 0.00 34 1019.1
20200703110326 66 95 0.0 2.0 0.00 0.00 0.00 33 1019.0
20200703105833 66 89 0.0 6.0 0.00 0.00 0.00 33 1018.9
20200703104341 66 89 1.0 5.0 0.00 0.00 0.00 32 1018.6
20200703103318 66 88 0.0 7.0 0.00 0.00 0.00 32 1018.3
20200703101332 66 85 2.0 10.0 0.00 0.00 0.00 32 1018.1
20200703100323 66 103 4.0 9.0 0.00 0.00 0.00 32 1018.1
20200703094817 67 96 3.0 9.0 0.00 0.00 0.00 32 1018.1
20200703093301 68 94 4.0 9.0 0.00 0.00 0.00 31 1017.9
20200703092809 68 89 3.0 7.0 0.00 0.00 0.00 31 1017.9
20200703092305 68 87 1.0 7.0 0.00 0.00 0.00 31 1017.7
20200703091345 68 97 1.0 6.0 0.00 0.00 0.00 31 1017.6
20200703090333 68 87 0.0 2.0 0.00 0.00 0.00 31 1017.7
20200703085314 68 89 0.0 6.0 0.00 0.00 0.00 31 1017.6
20200703084810 68 99 2.0 6.0 0.00 0.00 0.00 31 1017.5
20200703084336 69 89 1.0 6.0 0.00 0.00 0.00 31 1017.5
20200703083806 69 89 1.0 4.0 0.00 0.00 0.00 30 1017.3
20200703083325 69 100 0.0 5.0 0.00 0.00 0.00 30 1017.3
20200703082329 69 99 0.0 6.0 0.00 0.00 0.00 30 1017.1
20200703081332 69 95 1.0 8.0 0.00 0.00 0.00 29 1017.0
20200703080809 69 96 3.0 10.0 0.00 0.00 0.00 29 1017.1
20200703075822 69 99 4.0 9.0 0.00 0.00 0.00 30 1017.1
20200703075316 69 89 3.0 9.0 0.00 0.00 0.00 30 1017.1
20200703074825 69 95 4.0 10.0 0.00 0.00 0.00 30 1017.0
20200703074344 69 95 3.0 10.0 0.00 0.00 0.00 30 1017.1
20200703073829 69 92 3.0 9.0 0.00 0.00 0.00 30 1017.1
20200703073312 70 84 4.0 9.0 0.00 0.00 0.00 30 1017.1
20200703072829 70 96 1.0 8.0 0.00 0.00 0.00 30 1017.1
20200703071812 70 98 0.0 5.0 0.00 0.00 0.00 30 1017.1
20200703071320 70 93 2.0 5.0 0.00 0.00 0.00 30 1017.1
20200703070842 70 83 0.0 3.0 0.00 0.00 0.00 29 1017.1
20200703070307 70 100 1.0 4.0 0.00 0.00 0.00 30 1017.2
20200703065343 70 98 1.0 5.0 0.00 0.00 0.00 30 1017.1
20200703064810 71 105 0.0 6.0 0.00 0.00 0.00 30 1016.9
20200703064335 71 83 1.0 9.0 0.00 0.00 0.00 29 1017.0
20200703063845 71 101 2.0 9.0 0.00 0.00 0.00 30 1016.8
20200703063305 71 97 0.0 6.0 0.00 0.00 0.00 29 1016.8
20200703062823 71 95 0.0 4.0 0.00 0.00 0.00 29 1016.8
20200703061816 71 100 0.0 8.0 0.00 0.00 0.00 29 1016.8
20200703060315 71 96 1.0 7.0 0.00 0.00 0.00 30 1016.6
20200703055825 70 87 1.0 6.0 0.00 0.00 0.00 30 1016.6
20200703054817 70 87 0.0 0.0 0.00 0.00 0.00 30 1016.6
20200703054301 70 87 0.0 0.0 0.00 0.00 0.00 30 1016.6
20200703053306 70 87 0.0 0.0 0.00 0.00 0.00 31 1016.4
20200703052834 70 87 0.0 0.0 0.00 0.00 0.00 31 1016.3
20200703045846 71 86 0.0 0.0 0.00 0.00 0.00 32 1016.3
20200703043307 73 86 0.0 0.0 0.00 0.00 0.00 31 1016.1
20200703041834 74 98 0.0 0.0 0.00 0.00 0.00 29 1015.9
20200703040343 75 101 0.0 0.0 0.00 0.00 0.00 29 1015.7
20200703035339 77 217 0.0 0.0 0.00 0.00 0.00 29 1015.6
20200703034843 77 217 0.0 0.0 0.00 0.00 0.00 29 1015.6
20200703031820 80 241 0.0 0.0 0.00 0.00 0.00 26 1015.0
20200703031322 80 241 0.0 0.0 0.00 0.00 0.00 25 1015.0
20200703024825 83 244 0.0 0.0 0.00 0.00 0.00 25 1014.5
20200703023836 83 244 0.0 0.0 0.00 0.00 0.00 23 1014.5
20200703022336 85 244 0.0 0.0 0.00 0.00 0.00 22 1014.3
20200703021814 85 244 0.0 0.0 0.00 0.00 0.00 23 1014.2
20200703021324 86 244 0.0 0.0 0.00 0.00 0.00 23 1014.3
20200703015831 87 244 0.0 0.0 0.00 0.00 0.00 21 1014.2
20200703014815 87 244 0.0 0.0 0.00 0.00 0.00 22 1014.2
20200703014315 88 243 0.0 0.0 0.00 0.00 0.00 23 1014.3
20200703013839 88 243 0.0 0.0 0.00 0.00 0.00 22 1014.3
20200703012812 89 242 0.0 0.0 0.00 0.00 0.00 19 1014.3
20200703012327 89 241 0.0 0.0 0.00 0.00 0.00 18 1014.1
20200703010820 90 344 0.0 1.0 0.00 0.00 0.00 18 1014.3
20200703005306 91 246 0.0 2.0 0.00 0.00 0.00 18 1014.3
20200703004338 92 277 1.0 6.0 0.00 0.00 0.00 17 1014.2
20200703003845 92 312 0.0 5.0 0.00 0.00 0.00 17 1014.1
20200703002334 93 148 0.0 4.0 0.00 0.00 0.00 17 1014.5
20200703001821 94 253 0.0 7.0 0.00 0.00 0.00 18 1014.5
20200703001330 94 197 2.0 7.0 0.00 0.00 0.00 17 1014.5
20200703000818 94 159 0.0 6.0 0.00 0.00 0.00 17 1014.5
20200703000338 94 153 1.0 6.0 0.00 0.00 0.00 16 1014.5
20200702235837 95 166 1.0 4.0 0.00 0.00 0.00 17 1014.5
20200702235305 95 306 0.0 4.0 0.00 0.00 0.00 17 1014.7
20200702234804 95 307 0.0 5.0 0.00 0.00 0.00 18 1014.8
20200702233810 95 183 1.0 6.0 0.00 0.00 0.00 17 1014.7
20200702231808 95 251 0.0 7.0 0.00 0.00 0.00 18 1014.8